Terug naar catalogus

THORAD AGENA D DEB

ActiefLEO
NORAD 4451·DEBRIS·🇺🇸 United States

Gelanceerd Sep 30, 1969 vanaf Vandenberg Space Force Base

Loading…

Volgende Passages (komende 24 uur)

TLE

VersSource: Space-Track

Epoch: Sep 14, 2026, 06:26 UTC

1 04451U 69082EW  26257.26833697  .00001490  00000-0  34954-3 0  9997
2 04451  70.0321 204.0980 0033286 324.0203  35.8693 14.56148203968672

Volg THORAD AGENA D DEB in realtime met AllMySat

Download on the App Store